User: anonymous   Login
Location: Radford
(37.1320°N, 80.5770°W)
Time: 17:32:26
(UTC-04:00)
Language:

Okean 1-7 - Orbit

View from above orbital plane
View from above orbital plane
View from above satellite
View from above satellite

Ground track
Ground track

The orbit data is extracted from the following two-line orbital elements,

1 23317U 94066A   18147.55236569  .00000211  00000-0  20419-4 0  9997
2 23317  82.5358 154.4408 0019946   6.7950 353.3533 14.87555907277137
Epoch (UTC): 27 May 2018 13:15:24
Eccentricity: 0.0019946
inclination: 82.5358°
perigee height: 591 km
apogee height: 619 km
right ascension of ascending node: 154.4408°
argument of perigee: 6.7950°
revolutions per day: 14.87555907
mean anomaly at epoch: 353.3533°
orbit number at epoch: 27713

The dashed part of the orbit path shows where the satellite is in the earth's shadow,  

DLR